Location: Krasnoyarskiy Pitomnik
(51.1333°N, 71.6167°E)
Time: 15:28:03
(UTC+00:00)

Cosmos 304 Rocket - Pass Details

Date: 22 October 2021
Orbit: 678 x 688 km, 74.0° (Epoch: 26 November)

Event Time Altitude Azimuth Distance (km) Brightness Sun altitude
Rises 14:27:45 0° 206° (SSW) 3,027 7.3 -22.8°
Reaches altitude 10° 14:30:03 10° 208° (SSW) 2,118 6.5 -23.1°
Maximum altitude 14:34:49 79° 295° (WNW) 702 3.8 -23.9°
Enters shadow 14:37:49 23° 20° (NNE) 1,441 5.3 -24.3°
